Time,TemperatureF,DewpointF,PressureIn,WindDirection,WindDirectionDegrees,WindSpeedMPH,WindSpeedGustMPH,Humidity,HourlyPrecipIn,Conditions,Clouds,dailyrainin,SoftwareType,DateUTC
2013-09-30 00:00:00,50.0,49.5,30.10,WNW,294,0.0,8.0,98,0.00,,,0.00,Wunderground v.1.15,2013-09-30 04:00:00,
2013-09-30 00:05:00,49.9,49.4,30.10,WNW,294,0.0,8.0,98,0.00,,,0.00,Wunderground v.1.15,2013-09-30 04:05:00,
2013-09-30 00:10:00,49.8,49.3,30.10,WNW,294,0.0,8.0,98,0.00,,,0.00,Wunderground v.1.15,2013-09-30 04:10:00,
2013-09-30 00:15:00,49.7,49.2,30.10,WNW,294,0.0,8.0,98,0.00,,,0.00,Wunderground v.1.15,2013-09-30 04:15:00,
2013-09-30 00:20:00,49.6,49.1,30.09,WNW,294,0.0,8.0,98,0.00,,,0.00,Wunderground v.1.15,2013-09-30 04:20:00,
2013-09-30 00:25:00,49.6,49.3,30.09,WNW,294,0.0,8.0,99,0.00,,,0.00,Wunderground v.1.15,2013-09-30 04:25:00,
2013-09-30 00:30:00,49.7,49.4,30.09,WNW,294,0.0,8.0,99,0.00,,,0.00,Wunderground v.1.15,2013-09-30 04:30:00,
2013-09-30 00:40:00,49.6,49.3,30.09,WNW,294,0.0,8.0,99,0.00,,,0.00,Wunderground v.1.15,2013-09-30 04:40:00,
2013-09-30 00:50:00,49.5,49.2,30.09,WNW,294,0.0,8.0,99,0.00,,,0.00,Wunderground v.1.15,2013-09-30 04:50:00,
2013-09-30 00:55:00,49.4,49.1,30.09,WNW,294,0.0,8.0,99,0.00,,,0.00,Wunderground v.1.15,2013-09-30 04:55:00,
2013-09-30 01:00:00,49.2,48.9,30.09,WNW,294,0.0,8.0,99,0.00,,,0.00,Wunderground v.1.15,2013-09-30 05:00:00,
2013-09-30 01:05:00,49.1,48.8,30.09,WNW,294,0.0,8.0,99,0.00,,,0.00,Wunderground v.1.15,2013-09-30 05:05:00,
2013-09-30 01:10:00,48.9,48.4,30.09,WNW,294,0.0,8.0,98,0.00,,,0.00,Wunderground v.1.15,2013-09-30 05:10:00,
2013-09-30 01:20:00,48.1,47.3,30.09,WNW,294,0.0,8.0,97,0.00,,,0.00,Wunderground v.1.15,2013-09-30 05:20:00,
2013-09-30 01:25:00,48.0,47.5,30.09,WNW,294,0.0,8.0,98,0.00,,,0.00,Wunderground v.1.15,2013-09-30 05:25:00,
2013-09-30 01:30:00,48.0,47.5,30.09,WNW,294,0.0,8.0,98,0.00,,,0.00,Wunderground v.1.15,2013-09-30 05:30:00,
2013-09-30 01:35:00,47.8,47.3,30.09,WNW,294,0.0,8.0,98,0.00,,,0.00,Wunderground v.1.15,2013-09-30 05:35:00,
2013-09-30 01:40:00,47.5,47.0,30.09,WNW,294,0.0,8.0,98,0.00,,,0.00,Wunderground v.1.15,2013-09-30 05:40:00,
2013-09-30 01:45:00,47.4,46.9,30.09,WNW,294,0.0,8.0,98,0.00,,,0.00,Wunderground v.1.15,2013-09-30 05:45:00,
2013-09-30 01:50:00,47.5,47.0,30.09,WNW,294,0.0,8.0,98,0.00,,,0.00,Wunderground v.1.15,2013-09-30 05:50:00,
2013-09-30 01:55:00,47.4,46.9,30.09,WNW,294,0.0,8.0,98,0.00,,,0.00,Wunderground v.1.15,2013-09-30 05:55:00,
2013-09-30 02:00:00,47.1,46.6,30.09,WNW,294,0.0,8.0,98,0.00,,,0.00,Wunderground v.1.15,2013-09-30 06:00:00,
2013-09-30 02:05:00,46.9,46.4,30.09,WNW,294,0.0,8.0,98,0.00,,,0.00,Wunderground v.1.15,2013-09-30 06:05:00,
2013-09-30 02:15:00,46.5,46.0,30.09,WNW,294,0.0,8.0,98,0.00,,,0.00,Wunderground v.1.15,2013-09-30 06:15:00,
2013-09-30 02:20:00,46.3,45.8,30.09,WNW,294,0.0,8.0,98,0.00,,,0.00,Wunderground v.1.15,2013-09-30 06:20:00,
2013-09-30 02:25:00,46.2,45.7,30.09,WNW,294,0.0,8.0,98,0.00,,,0.00,Wunderground v.1.15,2013-09-30 06:25:00,
2013-09-30 02:30:00,46.1,45.6,30.09,WNW,294,0.0,8.0,98,0.00,,,0.00,Wunderground v.1.15,2013-09-30 06:30:00,
2013-09-30 02:35:00,46.1,45.6,30.09,WNW,294,0.0,8.0,98,0.00,,,0.00,Wunderground v.1.15,2013-09-30 06:35:00,
2013-09-30 02:40:00,46.1,45.8,30.09,WNW,294,0.0,8.0,99,0.00,,,0.00,Wunderground v.1.15,2013-09-30 06:40:00,
2013-09-30 02:45:00,46.0,45.5,30.09,WNW,294,0.0,8.0,98,0.00,,,0.00,Wunderground v.1.15,2013-09-30 06:45:00,
2013-09-30 02:50:00,45.9,45.4,30.09,WNW,294,0.0,8.0,98,0.00,,,0.00,Wunderground v.1.15,2013-09-30 06:50:00,
2013-09-30 02:55:00,45.9,45.4,30.09,WNW,294,0.0,8.0,98,0.00,,,0.00,Wunderground v.1.15,2013-09-30 06:55:00,
2013-09-30 03:00:00,46.1,45.8,30.08,WNW,294,0.0,8.0,99,0.00,,,0.00,Wunderground v.1.15,2013-09-30 07:00:00,
2013-09-30 03:05:00,46.3,46.0,30.08,WNW,294,0.0,8.0,99,0.00,,,0.00,Wunderground v.1.15,2013-09-30 07:05:00,
2013-09-30 03:15:00,46.0,45.7,30.08,WNW,294,0.0,8.0,99,0.00,,,0.00,Wunderground v.1.15,2013-09-30 07:15:00,
2013-09-30 03:20:00,45.7,45.2,30.08,WNW,294,0.0,8.0,98,0.00,,,0.00,Wunderground v.1.15,2013-09-30 07:20:00,
2013-09-30 03:25:00,45.8,45.5,30.08,WNW,294,0.0,8.0,99,0.00,,,0.00,Wunderground v.1.15,2013-09-30 07:25:00,
2013-09-30 03:30:00,45.8,45.5,30.08,WNW,294,0.0,8.0,99,0.00,,,0.00,Wunderground v.1.15,2013-09-30 07:30:00,
2013-09-30 03:35:00,45.7,45.4,30.08,WNW,294,0.0,8.0,99,0.00,,,0.00,Wunderground v.1.15,2013-09-30 07:35:00,
2013-09-30 03:40:00,45.8,45.5,30.08,WNW,294,0.0,8.0,99,0.00,,,0.00,Wunderground v.1.15,2013-09-30 07:40:00,
2013-09-30 03:45:00,45.8,45.5,30.08,WNW,294,0.0,8.0,99,0.00,,,0.00,Wunderground v.1.15,2013-09-30 07:45:00,
2013-09-30 03:50:00,45.8,45.5,30.07,WNW,294,0.0,8.0,99,0.00,,,0.00,Wunderground v.1.15,2013-09-30 07:50:00,
2013-09-30 04:00:00,45.8,45.5,30.08,WNW,294,0.0,8.0,99,0.00,,,0.00,Wunderground v.1.15,2013-09-30 08:00:00,
2013-09-30 04:05:00,45.7,45.4,30.07,WNW,294,0.0,8.0,99,0.00,,,0.00,Wunderground v.1.15,2013-09-30 08:05:00,
2013-09-30 04:15:00,45.3,44.8,30.07,WNW,294,0.0,8.0,98,0.00,,,0.00,Wunderground v.1.15,2013-09-30 08:15:00,
2013-09-30 04:20:00,45.1,44.6,30.07,WNW,294,0.0,8.0,98,0.00,,,0.00,Wunderground v.1.15,2013-09-30 08:20:00,
2013-09-30 04:25:00,44.9,44.4,30.07,WNW,294,0.0,8.0,98,0.00,,,0.00,Wunderground v.1.15,2013-09-30 08:25:00,
2013-09-30 04:35:00,45.0,44.7,30.08,WNW,294,0.0,8.0,99,0.00,,,0.00,Wunderground v.1.15,2013-09-30 08:35:00,
2013-09-30 04:40:00,45.1,44.8,30.07,WNW,294,0.0,8.0,99,0.00,,,0.00,Wunderground v.1.15,2013-09-30 08:40:00,
2013-09-30 04:45:00,45.2,44.9,30.08,WNW,294,0.0,8.0,99,0.00,,,0.00,Wunderground v.1.15,2013-09-30 08:45:00,
2013-09-30 04:50:00,45.4,45.4,30.08,WNW,294,0.0,8.0,100,0.00,,,0.00,Wunderground v.1.15,2013-09-30 08:50:00,
2013-09-30 04:55:00,45.5,45.5,30.08,WNW,294,0.0,8.0,100,0.00,,,0.00,Wunderground v.1.15,2013-09-30 08:55:00,
2013-09-30 05:00:00,45.5,45.2,30.08,WNW,294,0.0,8.0,99,0.00,,,0.00,Wunderground v.1.15,2013-09-30 09:00:00,
2013-09-30 05:05:00,45.5,45.2,30.07,WNW,294,0.0,8.0,99,0.00,,,0.00,Wunderground v.1.15,2013-09-30 09:05:00,
2013-09-30 05:15:00,45.8,45.8,30.07,WNW,294,0.0,8.0,100,0.00,,,0.00,Wunderground v.1.15,2013-09-30 09:15:00,
2013-09-30 05:20:00,45.8,45.5,30.07,WNW,294,0.0,8.0,99,0.00,,,0.00,Wunderground v.1.15,2013-09-30 09:20:00,
2013-09-30 05:30:00,45.8,45.5,30.07,WNW,294,0.0,8.0,99,0.00,,,0.00,Wunderground v.1.15,2013-09-30 09:30:00,
2013-09-30 05:35:00,45.7,45.4,30.08,WNW,294,0.0,8.0,99,0.00,,,0.00,Wunderground v.1.15,2013-09-30 09:35:00,
2013-09-30 05:40:00,45.6,45.3,30.08,WNW,294,0.0,8.0,99,0.00,,,0.00,Wunderground v.1.15,2013-09-30 09:40:00,
2013-09-30 05:45:00,45.5,45.2,30.08,WNW,294,0.0,8.0,99,0.00,,,0.00,Wunderground v.1.15,2013-09-30 09:45:00,
2013-09-30 05:50:00,45.2,44.9,30.08,WNW,294,0.0,8.0,99,0.00,,,0.00,Wunderground v.1.15,2013-09-30 09:50:00,
2013-09-30 05:55:00,45.2,44.9,30.08,WNW,294,0.0,8.0,99,0.00,,,0.00,Wunderground v.1.15,2013-09-30 09:55:00,
2013-09-30 06:00:00,45.3,45.0,30.08,WNW,294,0.0,8.0,99,0.00,,,0.00,Wunderground v.1.15,2013-09-30 10:00:00,
2013-09-30 06:10:00,45.4,45.1,30.08,WNW,294,0.0,8.0,99,0.00,,,0.00,Wunderground v.1.15,2013-09-30 10:10:00,
2013-09-30 06:15:00,45.4,45.1,30.08,WNW,294,0.0,8.0,99,0.00,,,0.00,Wunderground v.1.15,2013-09-30 10:15:00,
2013-09-30 06:20:00,45.3,45.0,30.08,WNW,294,0.0,8.0,99,0.00,,,0.00,Wunderground v.1.15,2013-09-30 10:20:00,
2013-09-30 06:25:00,45.2,44.9,30.08,WNW,294,0.0,8.0,99,0.00,,,0.00,Wunderground v.1.15,2013-09-30 10:25:00,
2013-09-30 06:30:00,45.2,44.9,30.09,WNW,294,0.0,8.0,99,0.00,,,0.00,Wunderground v.1.15,2013-09-30 10:30:00,
2013-09-30 06:35:00,45.3,45.0,30.08,WNW,294,0.0,8.0,99,0.00,,,0.00,Wunderground v.1.15,2013-09-30 10:35:00,
2013-09-30 06:40:00,45.3,45.0,30.08,WNW,294,0.0,8.0,99,0.00,,,0.00,Wunderground v.1.15,2013-09-30 10:40:00,
2013-09-30 06:50:00,45.4,45.4,30.09,WNW,294,0.0,8.0,100,0.00,,,0.00,Wunderground v.1.15,2013-09-30 10:50:00,
2013-09-30 06:55:00,45.5,45.5,30.09,WNW,294,0.0,8.0,100,0.00,,,0.00,Wunderground v.1.15,2013-09-30 10:55:00,
2013-09-30 07:00:00,45.6,45.3,30.09,WNW,294,0.0,8.0,99,0.00,,,0.00,Wunderground v.1.15,2013-09-30 11:00:00,
2013-09-30 07:05:00,45.6,45.3,30.09,SSW,209,0.0,8.0,99,0.00,,,0.00,Wunderground v.1.15,2013-09-30 11:05:00,
2013-09-30 07:10:00,45.8,45.8,30.09,SSW,209,0.0,8.0,100,0.00,,,0.00,Wunderground v.1.15,2013-09-30 11:10:00,
2013-09-30 07:15:00,46.0,46.0,30.09,SSW,209,0.0,8.0,100,0.00,,,0.00,Wunderground v.1.15,2013-09-30 11:15:00,
2013-09-30 07:20:00,46.5,46.5,30.09,SSW,209,0.0,8.0,100,0.00,,,0.00,Wunderground v.1.15,2013-09-30 11:20:00,
2013-09-30 07:30:00,47.7,47.7,30.09,SSW,209,0.0,8.0,100,0.00,,,0.00,Wunderground v.1.15,2013-09-30 11:30:00,
2013-09-30 07:35:00,48.2,48.2,30.09,SSW,209,0.0,8.0,100,0.00,,,0.00,Wunderground v.1.15,2013-09-30 11:35:00,
2013-09-30 07:40:00,48.6,48.6,30.09,SSW,209,0.0,8.0,100,0.00,,,0.00,Wunderground v.1.15,2013-09-30 11:40:00,
2013-09-30 07:45:00,48.7,48.7,30.09,SSW,209,0.0,8.0,100,0.00,,,0.00,Wunderground v.1.15,2013-09-30 11:45:00,
2013-09-30 07:50:00,48.8,48.8,30.09,SSW,209,0.0,8.0,100,0.00,,,0.00,Wunderground v.1.15,2013-09-30 11:50:00,
2013-09-30 07:55:00,49.1,49.1,30.09,SSW,209,0.0,8.0,100,0.00,,,0.00,Wunderground v.1.15,2013-09-30 11:55:00,
2013-09-30 08:00:00,49.8,49.8,30.09,SSW,209,0.0,8.0,100,0.00,,,0.00,Wunderground v.1.15,2013-09-30 12:00:00,
2013-09-30 08:10:00,50.8,50.8,30.09,SSW,209,0.0,8.0,100,0.00,,,0.00,Wunderground v.1.15,2013-09-30 12:10:00,
2013-09-30 08:15:00,51.0,51.0,30.09,SSW,209,0.0,8.0,100,0.00,,,0.00,Wunderground v.1.15,2013-09-30 12:15:00,
2013-09-30 08:20:00,51.0,51.0,30.10,SSW,209,0.0,8.0,100,0.00,,,0.00,Wunderground v.1.15,2013-09-30 12:20:00,
2013-09-30 08:25:00,51.0,51.0,30.10,SSW,209,0.0,8.0,100,0.00,,,0.00,Wunderground v.1.15,2013-09-30 12:25:00,
2013-09-30 08:30:00,51.3,51.3,30.10,SSW,209,0.0,8.0,100,0.00,,,0.00,Wunderground v.1.15,2013-09-30 12:30:00,
2013-09-30 08:35:00,51.6,51.6,30.10,WSW,242,0.0,8.0,100,0.00,,,0.00,Wunderground v.1.15,2013-09-30 12:35:00,
2013-09-30 08:40:00,51.9,51.9,30.09,WSW,242,0.0,8.0,100,0.00,,,0.00,Wunderground v.1.15,2013-09-30 12:40:00,
2013-09-30 08:50:00,53.8,53.8,30.09,WSW,242,0.0,8.0,100,0.00,,,0.00,Wunderground v.1.15,2013-09-30 12:50:00,
2013-09-30 08:55:00,55.1,54.8,30.09,WSW,242,0.0,8.0,99,0.00,,,0.00,Wunderground v.1.15,2013-09-30 12:55:00,
2013-09-30 09:00:00,56.4,55.6,30.08,WSW,242,0.0,8.0,97,0.00,,,0.00,Wunderground v.1.15,2013-09-30 13:00:00,
2013-09-30 09:05:00,57.2,55.5,30.08,WSW,242,0.0,8.0,94,0.00,,,0.00,Wunderground v.1.15,2013-09-30 13:05:00,
2013-09-30 09:10:00,57.5,55.5,30.08,WSW,242,1.0,8.0,93,0.00,,,0.00,Wunderground v.1.15,2013-09-30 13:10:00,
2013-09-30 09:15:00,57.7,54.8,30.08,WSW,242,1.0,8.0,90,0.00,,,0.00,Wunderground v.1.15,2013-09-30 13:15:00,
2013-09-30 09:20:00,57.5,54.3,30.08,NW,324,1.0,8.0,89,0.00,,,0.00,Wunderground v.1.15,2013-09-30 13:20:00,
2013-09-30 09:25:00,57.2,53.7,30.08,WSW,254,1.0,8.0,88,0.00,,,0.00,Wunderground v.1.15,2013-09-30 13:25:00,
2013-09-30 09:30:00,57.3,53.8,30.08,WSW,254,1.0,8.0,88,0.00,,,0.00,Wunderground v.1.15,2013-09-30 13:30:00,
2013-09-30 09:35:00,58.1,54.9,30.07,WSW,254,0.0,8.0,89,0.00,,,0.00,Wunderground v.1.15,2013-09-30 13:35:00,
2013-09-30 09:45:00,60.5,56.6,30.07,SSW,209,1.0,8.0,87,0.00,,,0.00,Wunderground v.1.15,2013-09-30 13:45:00,
2013-09-30 09:55:00,61.1,55.9,30.07,SSW,209,1.0,8.0,83,0.00,,,0.00,Wunderground v.1.15,2013-09-30 13:55:00,
2013-09-30 10:00:00,62.1,56.2,30.07,South,175,1.0,8.0,81,0.00,,,0.00,Wunderground v.1.15,2013-09-30 14:00:00,
2013-09-30 10:05:00,62.5,55.9,30.07,SW,227,1.0,8.0,79,0.00,,,0.00,Wunderground v.1.15,2013-09-30 14:05:00,
2013-09-30 10:10:00,61.4,54.8,30.07,SW,219,2.0,2.0,79,0.00,,,0.00,Wunderground v.1.15,2013-09-30 14:10:00,
2013-09-30 10:15:00,60.7,54.8,30.07,SSW,199,2.0,8.0,81,0.00,,,0.00,Wunderground v.1.15,2013-09-30 14:15:00,
2013-09-30 10:20:00,60.9,54.7,30.07,SW,223,2.0,8.0,80,0.00,,,0.00,Wunderground v.1.15,2013-09-30 14:20:00,
2013-09-30 10:30:00,62.0,55.1,30.06,South,178,1.0,8.0,78,0.00,,,0.00,Wunderground v.1.15,2013-09-30 14:30:00,
2013-09-30 10:40:00,62.8,55.8,30.07,SSW,195,1.0,8.0,78,0.00,,,0.00,Wunderground v.1.15,2013-09-30 14:40:00,
2013-09-30 10:45:00,63.5,54.7,30.07,WSW,238,1.0,8.0,73,0.00,,,0.00,Wunderground v.1.15,2013-09-30 14:45:00,
2013-09-30 10:50:00,64.5,54.5,30.07,NW,325,0.0,8.0,70,0.00,,,0.00,Wunderground v.1.15,2013-09-30 14:50:00,
2013-09-30 10:55:00,65.7,54.4,30.06,North,360,0.0,8.0,67,0.00,,,0.00,Wunderground v.1.15,2013-09-30 14:55:00,
2013-09-30 11:00:00,66.5,55.2,30.06,ENE,59,0.0,8.0,67,0.00,,,0.00,Wunderground v.1.15,2013-09-30 15:00:00,
2013-09-30 11:05:00,67.2,55.0,30.07,ENE,76,1.0,8.0,65,0.00,,,0.00,Wunderground v.1.15,2013-09-30 15:05:00,
2013-09-30 11:10:00,68.0,55.8,30.07,ENE,76,0.0,8.0,65,0.00,,,0.00,Wunderground v.1.15,2013-09-30 15:10:00,
2013-09-30 11:20:00,68.8,54.8,30.07,East,86,1.0,8.0,61,0.00,,,0.00,Wunderground v.1.15,2013-09-30 15:20:00,
2013-09-30 11:25:00,69.0,55.4,30.06,ENE,67,1.0,8.0,62,0.00,,,0.00,Wunderground v.1.15,2013-09-30 15:25:00,
2013-09-30 11:30:00,69.1,54.2,30.06,East,81,1.0,8.0,59,0.00,,,0.00,Wunderground v.1.15,2013-09-30 15:30:00,
2013-09-30 11:35:00,68.7,53.8,30.06,South,188,1.0,8.0,59,0.00,,,0.00,Wunderground v.1.15,2013-09-30 15:35:00,
2013-09-30 11:40:00,68.1,56.3,30.05,SSW,195,1.0,1.0,66,0.00,,,0.00,Wunderground v.1.15,2013-09-30 15:40:00,
2013-09-30 11:45:00,68.8,55.7,30.05,ENE,73,1.0,8.0,63,0.00,,,0.00,Wunderground v.1.15,2013-09-30 15:45:00,
2013-09-30 11:50:00,69.3,57.0,30.05,ENE,78,1.0,1.0,65,0.00,,,0.00,Wunderground v.1.15,2013-09-30 15:50:00,
2013-09-30 11:55:00,69.3,55.7,30.05,East,96,1.0,8.0,62,0.00,,,0.00,Wunderground v.1.15,2013-09-30 15:55:00,
2013-09-30 12:00:00,69.2,55.2,30.05,East,80,1.0,1.0,61,0.00,,,0.00,Wunderground v.1.15,2013-09-30 16:00:00,
2013-09-30 12:10:00,68.5,53.6,30.04,SE,135,1.0,8.0,59,0.00,,,0.00,Wunderground v.1.15,2013-09-30 16:10:00,
2013-09-30 12:15:00,67.4,55.2,30.04,SW,236,2.0,8.0,65,0.00,,,0.00,Wunderground v.1.15,2013-09-30 16:15:00,
2013-09-30 12:20:00,66.8,54.2,30.04,WSW,257,1.0,1.0,64,0.00,,,0.00,Wunderground v.1.15,2013-09-30 16:20:00,
2013-09-30 12:25:00,66.4,55.1,30.04,WSW,257,1.0,8.0,67,0.00,,,0.00,Wunderground v.1.15,2013-09-30 16:25:00,
2013-09-30 12:30:00,66.7,55.8,30.03,WSW,257,0.0,8.0,68,0.00,,,0.00,Wunderground v.1.15,2013-09-30 16:30:00,
2013-09-30 12:35:00,67.4,55.6,30.03,WSW,254,0.0,8.0,66,0.00,,,0.00,Wunderground v.1.15,2013-09-30 16:35:00,
2013-09-30 12:40:00,68.1,53.7,30.03,SW,221,1.0,1.0,60,0.00,,,0.00,Wunderground v.1.15,2013-09-30 16:40:00,
2013-09-30 12:45:00,68.6,56.8,30.03,SE,141,1.0,2.0,66,0.00,,,0.00,Wunderground v.1.15,2013-09-30 16:45:00,
2013-09-30 12:55:00,68.8,55.2,30.03,ENE,76,0.0,8.0,62,0.00,,,0.00,Wunderground v.1.15,2013-09-30 16:55:00,
2013-09-30 13:00:00,67.9,54.8,30.02,ENE,76,0.0,8.0,63,0.00,,,0.00,Wunderground v.1.15,2013-09-30 17:00:00,
2013-09-30 13:05:00,67.7,55.5,30.02,ENE,65,0.0,8.0,65,0.00,,,0.00,Wunderground v.1.15,2013-09-30 17:05:00,
2013-09-30 13:10:00,68.3,55.6,30.01,ENE,68,0.0,8.0,64,0.00,,,0.00,Wunderground v.1.15,2013-09-30 17:10:00,
2013-09-30 13:15:00,69.4,56.3,30.01,NE,52,1.0,8.0,63,0.00,,,0.00,Wunderground v.1.15,2013-09-30 17:15:00,
2013-09-30 13:20:00,69.2,53.8,30.01,North,355,1.0,8.0,58,0.00,,,0.00,Wunderground v.1.15,2013-09-30 17:20:00,
2013-09-30 13:25:00,68.9,54.4,30.01,NNE,13,1.0,8.0,60,0.00,,,0.00,Wunderground v.1.15,2013-09-30 17:25:00,
2013-09-30 13:30:00,69.3,55.7,30.01,NNE,32,0.0,8.0,62,0.00,,,0.00,Wunderground v.1.15,2013-09-30 17:30:00,
2013-09-30 13:35:00,69.7,56.1,30.01,NE,53,0.0,8.0,62,0.00,,,0.00,Wunderground v.1.15,2013-09-30 17:35:00,
2013-09-30 13:40:00,70.1,55.1,30.01,NE,55,1.0,1.0,59,0.00,,,0.00,Wunderground v.1.15,2013-09-30 17:40:00,
2013-09-30 13:50:00,69.2,56.9,30.01,NNE,26,0.0,8.0,65,0.00,,,0.00,Wunderground v.1.15,2013-09-30 17:50:00,
2013-09-30 14:00:00,67.9,54.4,30.01,SE,133,0.0,8.0,62,0.00,,,0.00,Wunderground v.1.15,2013-09-30 18:00:00,
2013-09-30 14:05:00,67.8,54.7,30.01,SSE,158,1.0,8.0,63,0.00,,,0.00,Wunderground v.1.15,2013-09-30 18:05:00,
2013-09-30 14:10:00,67.8,55.2,30.01,SSE,159,1.0,8.0,64,0.00,,,0.00,Wunderground v.1.15,2013-09-30 18:10:00,
2013-09-30 14:15:00,67.6,55.0,30.01,ENE,65,0.0,8.0,64,0.00,,,0.00,Wunderground v.1.15,2013-09-30 18:15:00,
2013-09-30 14:20:00,67.5,54.0,30.01,ENE,65,0.0,8.0,62,0.00,,,0.00,Wunderground v.1.15,2013-09-30 18:20:00,
2013-09-30 14:25:00,67.1,55.4,30.01,ENE,65,0.0,8.0,66,0.00,,,0.00,Wunderground v.1.15,2013-09-30 18:25:00,
2013-09-30 14:30:00,66.4,55.1,30.01,ENE,65,0.0,8.0,67,0.00,,,0.00,Wunderground v.1.15,2013-09-30 18:30:00,
2013-09-30 14:35:00,66.0,56.3,30.01,ENE,65,0.0,8.0,71,0.00,,,0.00,Wunderground v.1.15,2013-09-30 18:35:00,
2013-09-30 14:40:00,66.0,53.0,30.01,ENE,76,0.0,8.0,63,0.00,,,0.00,Wunderground v.1.15,2013-09-30 18:40:00,
2013-09-30 14:50:00,66.4,53.4,30.01,WSW,244,1.0,8.0,63,0.00,,,0.00,Wunderground v.1.15,2013-09-30 18:50:00,
2013-09-30 15:00:00,66.2,55.3,30.00,WSW,246,0.0,8.0,68,0.00,,,0.00,Wunderground v.1.15,2013-09-30 19:00:00,
2013-09-30 15:10:00,65.7,54.4,30.00,WSW,246,0.0,8.0,67,0.00,,,0.00,Wunderground v.1.15,2013-09-30 19:10:00,
2013-09-30 15:15:00,65.7,56.8,30.00,WSW,246,0.0,8.0,73,0.00,,,0.00,Wunderground v.1.15,2013-09-30 19:15:00,
2013-09-30 15:20:00,65.7,56.8,30.00,WSW,246,0.0,8.0,73,0.00,,,0.00,Wunderground v.1.15,2013-09-30 19:20:00,
2013-09-30 15:25:00,65.8,55.3,30.00,WSW,246,0.0,8.0,69,0.00,,,0.00,Wunderground v.1.15,2013-09-30 19:25:00,
2013-09-30 15:35:00,65.9,56.6,30.00,WSW,246,0.0,8.0,72,0.00,,,0.00,Wunderground v.1.15,2013-09-30 19:35:00,
2013-09-30 15:40:00,65.7,55.6,29.99,WSW,246,0.0,8.0,70,0.00,,,0.00,Wunderground v.1.15,2013-09-30 19:40:00,
2013-09-30 15:45:00,65.7,54.8,29.99,North,351,0.0,8.0,68,0.00,,,0.00,Wunderground v.1.15,2013-09-30 19:45:00,
2013-09-30 15:50:00,66.0,55.1,29.99,North,5,0.0,8.0,68,0.00,,,0.00,Wunderground v.1.15,2013-09-30 19:50:00,
2013-09-30 15:55:00,66.2,54.1,29.99,North,5,0.0,8.0,65,0.00,,,0.00,Wunderground v.1.15,2013-09-30 19:55:00,
2013-09-30 16:00:00,66.4,55.5,29.99,North,5,0.0,8.0,68,0.00,,,0.00,Wunderground v.1.15,2013-09-30 20:00:00,
2013-09-30 16:05:00,66.7,55.0,29.99,East,82,0.0,8.0,66,0.00,,,0.00,Wunderground v.1.15,2013-09-30 20:05:00,
2013-09-30 16:15:00,66.6,54.5,29.99,NNE,32,0.0,8.0,65,0.00,,,0.00,Wunderground v.1.15,2013-09-30 20:15:00,
2013-09-30 16:25:00,66.1,55.6,29.98,NNE,28,0.0,8.0,69,0.00,,,0.00,Wunderground v.1.15,2013-09-30 20:25:00,
2013-09-30 16:30:00,65.9,54.6,29.98,NNE,28,0.0,8.0,67,0.00,,,0.00,Wunderground v.1.15,2013-09-30 20:30:00,
2013-09-30 16:35:00,65.8,54.9,29.98,NNE,28,0.0,8.0,68,0.00,,,0.00,Wunderground v.1.15,2013-09-30 20:35:00,
2013-09-30 16:40:00,65.6,54.3,29.98,NNE,28,0.0,8.0,67,0.00,,,0.00,Wunderground v.1.15,2013-09-30 20:40:00,
2013-09-30 16:45:00,65.5,53.4,29.98,NNE,28,0.0,8.0,65,0.00,,,0.00,Wunderground v.1.15,2013-09-30 20:45:00,
2013-09-30 16:50:00,65.3,53.6,29.98,NNE,28,0.0,8.0,66,0.00,,,0.00,Wunderground v.1.15,2013-09-30 20:50:00,
2013-09-30 16:55:00,65.1,55.1,29.98,NNE,33,0.0,8.0,70,0.00,,,0.00,Wunderground v.1.15,2013-09-30 20:55:00,
2013-09-30 17:00:00,64.9,53.7,29.98,NNE,19,0.0,8.0,67,0.00,,,0.00,Wunderground v.1.15,2013-09-30 21:00:00,
2013-09-30 17:05:00,64.8,55.6,29.98,NNE,19,0.0,8.0,72,0.00,,,0.00,Wunderground v.1.15,2013-09-30 21:05:00,
2013-09-30 17:15:00,64.1,55.3,29.98,NNE,19,0.0,8.0,73,0.00,,,0.00,Wunderground v.1.15,2013-09-30 21:15:00,
2013-09-30 17:20:00,63.8,55.4,29.98,NNE,19,0.0,8.0,74,0.00,,,0.00,Wunderground v.1.15,2013-09-30 21:20:00,
2013-09-30 17:25:00,63.5,55.4,29.98,NNE,19,0.0,8.0,75,0.00,,,0.00,Wunderground v.1.15,2013-09-30 21:25:00,
2013-09-30 17:30:00,63.1,55.4,29.98,NNE,19,0.0,8.0,76,0.00,,,0.00,Wunderground v.1.15,2013-09-30 21:30:00,
2013-09-30 17:35:00,62.8,55.5,29.98,NNE,19,0.0,8.0,77,0.00,,,0.00,Wunderground v.1.15,2013-09-30 21:35:00,
2013-09-30 17:40:00,62.4,55.4,29.98,NNE,19,0.0,8.0,78,0.00,,,0.00,Wunderground v.1.15,2013-09-30 21:40:00,
2013-09-30 17:45:00,62.0,55.8,29.98,NNE,19,0.0,8.0,80,0.00,,,0.00,Wunderground v.1.15,2013-09-30 21:45:00,
2013-09-30 17:55:00,61.3,56.1,29.98,NNE,19,0.0,8.0,83,0.00,,,0.00,Wunderground v.1.15,2013-09-30 21:55:00,
2013-09-30 18:05:00,60.5,55.6,29.98,NNE,19,0.0,8.0,84,0.00,,,0.00,Wunderground v.1.15,2013-09-30 22:05:00,
2013-09-30 18:10:00,60.2,55.3,29.98,NNE,19,0.0,8.0,84,0.00,,,0.00,Wunderground v.1.15,2013-09-30 22:10:00,
2013-09-30 18:15:00,59.7,54.9,29.99,NNE,19,0.0,8.0,84,0.00,,,0.00,Wunderground v.1.15,2013-09-30 22:15:00,
2013-09-30 18:20:00,59.2,54.7,29.98,NNE,19,0.0,8.0,85,0.00,,,0.00,Wunderground v.1.15,2013-09-30 22:20:00,
2013-09-30 18:25:00,58.8,54.6,29.99,NNE,19,0.0,8.0,86,0.00,,,0.00,Wunderground v.1.15,2013-09-30 22:25:00,
2013-09-30 18:30:00,58.5,54.6,29.99,NNE,19,0.0,8.0,87,0.00,,,0.00,Wunderground v.1.15,2013-09-30 22:30:00,
2013-09-30 18:35:00,58.1,54.9,29.99,NNE,19,0.0,8.0,89,0.00,,,0.00,Wunderground v.1.15,2013-09-30 22:35:00,
2013-09-30 18:45:00,57.5,54.3,29.99,NNE,19,0.0,8.0,89,0.00,,,0.00,Wunderground v.1.15,2013-09-30 22:45:00,
2013-09-30 18:50:00,57.2,54.6,29.99,NNE,19,0.0,8.0,91,0.00,,,0.00,Wunderground v.1.15,2013-09-30 22:50:00,
2013-09-30 18:55:00,57.0,54.4,29.99,NNE,19,0.0,8.0,91,0.00,,,0.00,Wunderground v.1.15,2013-09-30 22:55:00,
2013-09-30 19:00:00,56.9,54.6,29.99,NNE,19,0.0,8.0,92,0.00,,,0.00,Wunderground v.1.15,2013-09-30 23:00:00,
2013-09-30 19:05:00,56.8,54.5,29.99,NNE,19,0.0,8.0,92,0.00,,,0.00,Wunderground v.1.15,2013-09-30 23:05:00,
2013-09-30 19:10:00,56.6,54.0,29.99,NNE,19,0.0,8.0,91,0.00,,,0.00,Wunderground v.1.15,2013-09-30 23:10:00,
2013-09-30 19:15:00,56.4,54.1,29.99,NNE,19,0.0,8.0,92,0.00,,,0.00,Wunderground v.1.15,2013-09-30 23:15:00,
2013-09-30 19:20:00,56.2,53.9,29.99,NNE,19,0.0,8.0,92,0.00,,,0.00,Wunderground v.1.15,2013-09-30 23:20:00,
2013-09-30 19:30:00,55.8,53.8,29.99,NNE,19,0.0,8.0,93,0.00,,,0.00,Wunderground v.1.15,2013-09-30 23:30:00,
2013-09-30 19:35:00,55.7,53.7,29.99,NNE,19,0.0,8.0,93,0.00,,,0.00,Wunderground v.1.15,2013-09-30 23:35:00,
2013-09-30 19:40:00,55.5,53.5,29.99,NNE,19,0.0,8.0,93,0.00,,,0.00,Wunderground v.1.15,2013-09-30 23:40:00,
2013-09-30 19:45:00,55.4,53.4,29.99,NNE,19,0.0,8.0,93,0.00,,,0.00,Wunderground v.1.15,2013-09-30 23:45:00,
2013-09-30 19:50:00,55.3,53.3,29.99,NNE,19,0.0,8.0,93,0.00,,,0.00,Wunderground v.1.15,2013-09-30 23:50:00,
2013-09-30 19:55:00,55.3,53.3,30.00,NNE,19,0.0,8.0,93,0.00,,,0.00,Wunderground v.1.15,2013-09-30 23:55:00,
2013-09-30 20:05:00,55.1,53.4,29.99,NNE,19,0.0,8.0,94,0.00,,,0.00,Wunderground v.1.15,2013-10-01 00:05:00,
2013-09-30 20:10:00,55.0,53.0,29.99,NNE,19,0.0,8.0,93,0.00,,,0.00,Wunderground v.1.15,2013-10-01 00:10:00,
2013-09-30 20:15:00,54.9,53.2,30.00,NNE,19,0.0,8.0,94,0.00,,,0.00,Wunderground v.1.15,2013-10-01 00:15:00,
2013-09-30 20:20:00,54.8,53.1,30.00,NNE,19,0.0,8.0,94,0.00,,,0.00,Wunderground v.1.15,2013-10-01 00:20:00,